Regional Weather Roundup
Issued by NWS New Orleans/Baton Rouge, LA

Home | Current Version | Previous Version | Text Only | Print | Product List | Glossary On
Versions: 1 2 3 4 5 6 7 8 9 10 11 12 13 14 15 16 17 18 19 20 21 22 23 24 25 26 27 28 29 30 31 32 33 34 35 36 37 38 39 40 41 42 43 44 45 46 47 48 49 50
000
ASUS44 KLIX 291708
RWRLIX
NEW ORLEANS REGIONAL WEATHER ROUNDUP
NATIONAL WEATHER SERVICE NEW ORLEANS LA
1200 PM CDT FRI MAY 29 2015

NOTE: "FAIR" INDICATES FEW OR NO CLOUDS BELOW 12,000 FEET WITH NO
      SIGNIFICANT WEATHER AND/OR OBSTRUCTIONS TO VISIBILITY.
      SKY/WX - SKY CONDITION AND SIGNIFICANT WEATHER.
      TMP - AIR TEMPERATURE.     DP    - DEWPOINT TEMPERATURE.
      RH  - RELATIVE HUMIDITY.   PRES  - PRESSURE.
      HI  - HEAT INDEX.          WCI   - WIND CHILL INDEX.

*  THESE STATIONS ARE NOT NWS OR FAA STATIONS AND ARE NOT UNDER
   NWS QUALITY CONTROL.

LAZ038-040-048-061>063-065>067-069-291800-
SOUTHEAST LOUISIANA

CITY           SKY/WX    TMP DP  RH WIND       PRES   REMARKS
N.O. AUDUBON     N/A     84  68  59 MISG        N/A
N.O. INTL ARPT LGT RAIN  84  73  69 SE14      30.08S
N.O. LAKEFRONT MOSUNNY   87  68  52 S13G28    30.08F
SLIDELL        PTSUNNY   84  71  65 S9        30.08F
BATON ROUGE    MOSUNNY   86  71  60 VRB5      30.07S
BOOTHVILLE     MOSUNNY   83  72  69 E7        30.10F
BELLE CHASSE   TSTM      72  66  81 W10       30.09F FOG
BOGALUSA*        N/A     86  68  55 SW7       30.10F
GALLIANO*      PTSUNNY   86  72  62 S7        30.09S
NEW ROADS*     PTSUNNY   85  72  65 CALM      30.06F
GONZALES*        N/A     84  71  64 S3        30.06S
HAMMOND*       MOSUNNY   86  66  51 SE9       30.10S
HOUMA*         MOSUNNY   84  72  65 S9        30.08S
PORT FOURCHON*   N/A     82  72  69 SE12      30.09S

$$

MSZ070-080>082-291800-
SOUTHERN MISSISSIPPI

CITY           SKY/WX    TMP DP  RH WIND       PRES   REMARKS
MCCOMB         MOSUNNY   84  71  65 SW7       30.09F
GULFPORT       MOSUNNY   83  72  69 SE15      30.10F
BILOXI         PTSUNNY   83  73  72 SE12      30.11F
PASCAGOULA     PTSUNNY   83  71  67 SE13G18   30.11F
STENNIS ARPT*  PTSUNNY   84  66  54 MISG      30.10

$$

COASTAL OBSERVATIONS
LAKE AND NEARSHORE STATIONS

STATION/POSITION TIME  TEMP    WIND        PRES    WAVE
                       AIR SEA DIR/SP/G            HT/PER
                 (UTC) (F)     (DEG/KT/KT) (MB)    (FT/S)
PASCAGOULA       1600   82     140/ 11/ 14 1019.7
WAVELAND YACHT   1600   80 81  150/  9/ 12 1019.6
GRAND ISLE       1600   82 82  150/  6/  9 1019.1
SOUTHWEST PASS   1600   82 75  110/ 13/ 14 1019.5
NEW CANAL        1600   83 82  200/  3/  8 1017.9
SHELL BEACH      1600   81 81  120/ 11/ 15 1018.5

OFFSHORE STATIONS

STATION/POSITION TIME  TEMP    WIND        PRES    WAVE
                       AIR SEA DIR/SP/G            HT/PER
                 (UTC) (F)     (DEG/KT/KT) (MB)    (FT/S)
64 S DAUPHIN ISL 1650   80 81  100/ 14/ 16 1019.7    2/ 6

$$




USA.gov is the U.S. government's official web portal to all federal, state and local government web resources and services.